TimeCST,TemperatureF,Dew PointF,Humidity,Sea Level PressureIn,VisibilityMPH,Wind Direction,Wind SpeedMPH,Gust SpeedMPH,PrecipitationIn,Events,Conditions,WindDirDegrees,DateUTC
12:54 AM,36.0,30.9,82,30.15,10.0,South,4.6,-,N/A,,Clear,180,2012-11-08 06:54:00
1:54 AM,35.1,30.9,85,30.14,10.0,South,6.9,-,N/A,,Clear,170,2012-11-08 07:54:00
2:54 AM,35.1,30.9,85,30.13,10.0,South,10.4,-,N/A,,Clear,180,2012-11-08 08:54:00
3:54 AM,35.1,30.9,85,30.12,10.0,South,9.2,-,N/A,,Clear,180,2012-11-08 09:54:00
4:54 AM,35.1,30.9,85,30.11,10.0,South,10.4,-,N/A,,Clear,170,2012-11-08 10:54:00
5:54 AM,34.0,30.9,89,30.10,10.0,South,9.2,-,N/A,,Clear,180,2012-11-08 11:54:00
6:54 AM,34.0,30.0,85,30.10,10.0,South,9.2,-,N/A,,Clear,170,2012-11-08 12:54:00
7:54 AM,36.0,30.9,82,30.11,10.0,South,12.7,-,N/A,,Clear,170,2012-11-08 13:54:00
8:54 AM,39.0,33.1,79,30.11,10.0,South,13.8,-,N/A,,Clear,170,2012-11-08 14:54:00
9:54 AM,43.0,35.1,74,30.09,10.0,South,12.7,-,N/A,,Clear,170,2012-11-08 15:54:00
10:54 AM,46.9,36.0,66,30.09,10.0,South,12.7,-,N/A,,Clear,170,2012-11-08 16:54:00
11:54 AM,50.0,37.9,63,30.06,10.0,South,13.8,-,N/A,,Clear,170,2012-11-08 17:54:00
12:54 PM,52.0,37.9,59,30.02,10.0,SSE,18.4,25.3,N/A,,Clear,160,2012-11-08 18:54:00
1:54 PM,54.0,37.9,55,29.99,10.0,SE,16.1,25.3,N/A,,Clear,140,2012-11-08 19:54:00
2:54 PM,54.0,37.0,53,29.98,10.0,SSE,13.8,25.3,N/A,,Clear,160,2012-11-08 20:54:00
3:54 PM,53.1,37.0,55,29.97,10.0,SSE,19.6,24.2,N/A,,Clear,160,2012-11-08 21:54:00
4:54 PM,50.0,37.0,61,29.97,10.0,SSE,9.2,-,N/A,,Clear,150,2012-11-08 22:54:00
5:54 PM,48.9,37.0,64,29.99,10.0,SSE,8.1,-,N/A,,Clear,160,2012-11-08 23:54:00
6:54 PM,46.9,37.0,68,30.01,10.0,SSE,8.1,-,N/A,,Clear,160,2012-11-09 00:54:00
7:54 PM,46.0,37.0,71,30.00,10.0,SSE,9.2,-,N/A,,Clear,160,2012-11-09 01:54:00
8:54 PM,45.0,37.0,74,30.01,10.0,SSE,6.9,-,N/A,,Clear,160,2012-11-09 02:54:00
9:54 PM,42.1,37.0,82,30.01,10.0,SE,5.8,-,N/A,,Clear,130,2012-11-09 03:54:00
10:54 PM,41.0,37.0,86,30.00,10.0,SE,8.1,-,N/A,,Clear,130,2012-11-09 04:54:00
11:54 PM,37.9,35.1,89,29.99,10.0,ESE,5.8,-,N/A,,Clear,120,2012-11-09 05:54:00